owner,sensor,date,latitude,longitude,sea_surface_height_above_sea_level,qcFlag 
TCOON,ioos:station:TCOON:057:1,2019-04-01T00:24:00Z,28.4460,-96.3961,3.768,1111122 
TCOON,ioos:station:TCOON:057:1,2019-04-01T01:24:00Z,28.4460,-96.3961,3.752,1111122 
TCOON,ioos:station:TCOON:057:1,2019-04-01T02:24:00Z,28.4460,-96.3961,3.78,1111122 
TCOON,ioos:station:TCOON:057:1,2019-04-01T03:24:00Z,28.4460,-96.3961,3.792,1111122 
TCOON,ioos:station:TCOON:057:1,2019-04-01T04:24:00Z,28.4460,-96.3961,3.793,1111122 
TCOON,ioos:station:TCOON:057:1,2019-04-01T05:24:00Z,28.4460,-96.3961,3.797,1111122 
TCOON,ioos:station:TCOON:057:1,2019-04-01T06:24:00Z,28.4460,-96.3961,3.802,1111122 
TCOON,ioos:station:TCOON:057:1,2019-04-01T07:24:00Z,28.4460,-96.3961,3.817,1111122 
TCOON,ioos:station:TCOON:057:1,2019-04-01T08:24:00Z,28.4460,-96.3961,3.783,1111122 
TCOON,ioos:station:TCOON:057:1,2019-04-01T09:24:00Z,28.4460,-96.3961,3.76,1111122 
TCOON,ioos:station:TCOON:057:1,2019-04-01T10:24:00Z,28.4460,-96.3961,3.758,1111122 
TCOON,ioos:station:TCOON:057:1,2019-04-01T11:24:00Z,28.4460,-96.3961,3.742,1111122 
TCOON,ioos:station:TCOON:057:1,2019-04-01T12:24:00Z,28.4460,-96.3961,3.709,1111122 
TCOON,ioos:station:TCOON:057:1,2019-04-01T13:24:00Z,28.4460,-96.3961,3.68,1111122 
TCOON,ioos:station:TCOON:057:1,2019-04-01T14:24:00Z,28.4460,-96.3961,3.683,1111122 
TCOON,ioos:station:TCOON:057:1,2019-04-01T15:30:00Z,28.4460,-96.3961,3.664,1111122 
TCOON,ioos:station:TCOON:057:1,2019-04-01T16:24:00Z,28.4460,-96.3961,3.664,1111122 
TCOON,ioos:station:TCOON:057:1,2019-04-01T17:24:00Z,28.4460,-96.3961,3.687,1111122 
TCOON,ioos:station:TCOON:057:1,2019-04-01T18:24:00Z,28.4460,-96.3961,3.697,1111122 
TCOON,ioos:station:TCOON:057:1,2019-04-01T19:24:00Z,28.4460,-96.3961,3.717,1111122 
TCOON,ioos:station:TCOON:057:1,2019-04-01T20:24:00Z,28.4460,-96.3961,3.748,1111122 
TCOON,ioos:station:TCOON:057:1,2019-04-01T21:24:00Z,28.4460,-96.3961,3.751,1111122 
TCOON,ioos:station:TCOON:057:1,2019-04-01T22:24:00Z,28.4460,-96.3961,3.781,1111122 
TCOON,ioos:station:TCOON:057:1,2019-04-01T23:24:00Z,28.4460,-96.3961,3.794,1111122 
TCOON,ioos:station:TCOON:057:1,2019-04-02T00:24:00Z,28.4460,-96.3961,3.804,1111122 
TCOON,ioos:station:TCOON:057:1,2019-04-02T01:24:00Z,28.4460,-96.3961,3.827,1111122 
TCOON,ioos:station:TCOON:057:1,2019-04-02T02:24:00Z,28.4460,-96.3961,3.836,1111122 
TCOON,ioos:station:TCOON:057:1,2019-04-02T03:24:00Z,28.4460,-96.3961,3.83,1111122 
TCOON,ioos:station:TCOON:057:1,2019-04-02T04:24:00Z,28.4460,-96.3961,3.831,1111122 
TCOON,ioos:station:TCOON:057:1,2019-04-02T05:48:00Z,28.4460,-96.3961,3.831,1111122 
TCOON,ioos:station:TCOON:057:1,2019-04-02T06:24:00Z,28.4460,-96.3961,3.816,1111122 
TCOON,ioos:station:TCOON:057:1,2019-04-02T07:24:00Z,28.4460,-96.3961,3.83,1111122 
TCOON,ioos:station:TCOON:057:1,2019-04-02T08:24:00Z,28.4460,-96.3961,3.817,1111122 
TCOON,ioos:station:TCOON:057:1,2019-04-02T09:24:00Z,28.4460,-96.3961,3.795,1111122 
TCOON,ioos:station:TCOON:057:1,2019-04-02T10:24:00Z,28.4460,-96.3961,3.779,1111122 
TCOON,ioos:station:TCOON:057:1,2019-04-02T11:24:00Z,28.4460,-96.3961,3.756,1111122 
TCOON,ioos:station:TCOON:057:1,2019-04-02T12:24:00Z,28.4460,-96.3961,3.733,1111122 
TCOON,ioos:station:TCOON:057:1,2019-04-02T13:24:00Z,28.4460,-96.3961,3.725,1111122 
TCOON,ioos:station:TCOON:057:1,2019-04-02T14:24:00Z,28.4460,-96.3961,3.713,1111122 
TCOON,ioos:station:TCOON:057:1,2019-04-02T15:30:00Z,28.4460,-96.3961,3.696,1111122 
TCOON,ioos:station:TCOON:057:1,2019-04-02T16:30:00Z,28.4460,-96.3961,3.677,1111122 
TCOON,ioos:station:TCOON:057:1,2019-04-02T17:30:00Z,28.4460,-96.3961,3.698,1111122 
TCOON,ioos:station:TCOON:057:1,2019-04-02T18:30:00Z,28.4460,-96.3961,3.708,1111122 
TCOON,ioos:station:TCOON:057:1,2019-04-02T19:24:00Z,28.4460,-96.3961,3.722,1111122 
TCOON,ioos:station:TCOON:057:1,2019-04-02T20:24:00Z,28.4460,-96.3961,3.738,1111122 
TCOON,ioos:station:TCOON:057:1,2019-04-02T21:24:00Z,28.4460,-96.3961,3.761,1111122 
TCOON,ioos:station:TCOON:057:1,2019-04-02T22:24:00Z,28.4460,-96.3961,3.787,1111122 
TCOON,ioos:station:TCOON:057:1,2019-04-02T23:24:00Z,28.4460,-96.3961,3.801,1111122 
TCOON,ioos:station:TCOON:057:1,2019-04-03T00:24:00Z,28.4460,-96.3961,3.815,1111122 
TCOON,ioos:station:TCOON:057:1,2019-04-03T01:24:00Z,28.4460,-96.3961,3.827,1111122 
TCOON,ioos:station:TCOON:057:1,2019-04-03T02:24:00Z,28.4460,-96.3961,3.828,1111122 
TCOON,ioos:station:TCOON:057:1,2019-04-03T03:24:00Z,28.4460,-96.3961,3.821,1111122 
TCOON,ioos:station:TCOON:057:1,2019-04-03T04:24:00Z,28.4460,-96.3961,3.828,1111122 
TCOON,ioos:station:TCOON:057:1,2019-04-03T05:24:00Z,28.4460,-96.3961,3.832,1111122 
TCOON,ioos:station:TCOON:057:1,2019-04-03T06:24:00Z,28.4460,-96.3961,3.857,1111122 
TCOON,ioos:station:TCOON:057:1,2019-04-03T07:24:00Z,28.4460,-96.3961,3.861,1111122 
TCOON,ioos:station:TCOON:057:1,2019-04-03T08:24:00Z,28.4460,-96.3961,3.865,1111122 
TCOON,ioos:station:TCOON:057:1,2019-04-03T09:24:00Z,28.4460,-96.3961,3.875,1111122 
TCOON,ioos:station:TCOON:057:1,2019-04-03T10:24:00Z,28.4460,-96.3961,3.869,1111122 
TCOON,ioos:station:TCOON:057:1,2019-04-03T11:24:00Z,28.4460,-96.3961,3.845,1111122 
TCOON,ioos:station:TCOON:057:1,2019-04-03T12:24:00Z,28.4460,-96.3961,3.833,1111122 
TCOON,ioos:station:TCOON:057:1,2019-04-03T13:24:00Z,28.4460,-96.3961,3.817,1111122 
TCOON,ioos:station:TCOON:057:1,2019-04-03T14:30:00Z,28.4460,-96.3961,3.792,1111122 
TCOON,ioos:station:TCOON:057:1,2019-04-03T15:30:00Z,28.4460,-96.3961,3.779,1111122 
TCOON,ioos:station:TCOON:057:1,2019-04-03T16:30:00Z,28.4460,-96.3961,3.766,1111122 
TCOON,ioos:station:TCOON:057:1,2019-04-03T17:30:00Z,28.4460,-96.3961,3.773,1111122 
TCOON,ioos:station:TCOON:057:1,2019-04-03T18:24:00Z,28.4460,-96.3961,3.779,1111122 
TCOON,ioos:station:TCOON:057:1,2019-04-03T19:24:00Z,28.4460,-96.3961,3.793,1111122 
TCOON,ioos:station:TCOON:057:1,2019-04-03T20:24:00Z,28.4460,-96.3961,3.818,1111122 
TCOON,ioos:station:TCOON:057:1,2019-04-03T21:24:00Z,28.4460,-96.3961,3.84,1111122 
TCOON,ioos:station:TCOON:057:1,2019-04-03T22:30:00Z,28.4460,-96.3961,3.848,1111122 
TCOON,ioos:station:TCOON:057:1,2019-04-03T23:24:00Z,28.4460,-96.3961,3.86,1111122 
TCOON,ioos:station:TCOON:057:1,2019-04-04T00:24:00Z,28.4460,-96.3961,3.864,1111122 
TCOON,ioos:station:TCOON:057:1,2019-04-04T01:24:00Z,28.4460,-96.3961,3.861,1111122 
TCOON,ioos:station:TCOON:057:1,2019-04-04T02:24:00Z,28.4460,-96.3961,3.872,1111122 
TCOON,ioos:station:TCOON:057:1,2019-04-04T03:24:00Z,28.4460,-96.3961,3.858,1111122 
TCOON,ioos:station:TCOON:057:1,2019-04-04T04:24:00Z,28.4460,-96.3961,3.867,1111122 
TCOON,ioos:station:TCOON:057:1,2019-04-04T05:24:00Z,28.4460,-96.3961,3.875,1111122 
TCOON,ioos:station:TCOON:057:1,2019-04-04T06:24:00Z,28.4460,-96.3961,3.892,1111122 
TCOON,ioos:station:TCOON:057:1,2019-04-04T07:24:00Z,28.4460,-96.3961,3.902,1111122 
TCOON,ioos:station:TCOON:057:1,2019-04-04T08:24:00Z,28.4460,-96.3961,3.919,1111122 
TCOON,ioos:station:TCOON:057:1,2019-04-04T09:24:00Z,28.4460,-96.3961,3.925,1111122 
TCOON,ioos:station:TCOON:057:1,2019-04-04T10:24:00Z,28.4460,-96.3961,3.93,1111122 
TCOON,ioos:station:TCOON:057:1,2019-04-04T11:24:00Z,28.4460,-96.3961,3.931,1111122 
TCOON,ioos:station:TCOON:057:1,2019-04-04T12:24:00Z,28.4460,-96.3961,3.937,1111122 
TCOON,ioos:station:TCOON:057:1,2019-04-04T13:24:00Z,28.4460,-96.3961,3.941,1111122 
TCOON,ioos:station:TCOON:057:1,2019-04-04T14:24:00Z,28.4460,-96.3961,3.922,1111122 
TCOON,ioos:station:TCOON:057:1,2019-04-04T15:24:00Z,28.4460,-96.3961,3.909,1111122 
TCOON,ioos:station:TCOON:057:1,2019-04-04T16:24:00Z,28.4460,-96.3961,3.904,1111122 
TCOON,ioos:station:TCOON:057:1,2019-04-04T17:24:00Z,28.4460,-96.3961,3.893,1111122 
TCOON,ioos:station:TCOON:057:1,2019-04-04T18:24:00Z,28.4460,-96.3961,3.886,1111122 
TCOON,ioos:station:TCOON:057:1,2019-04-04T19:24:00Z,28.4460,-96.3961,3.881,1111122 
TCOON,ioos:station:TCOON:057:1,2019-04-04T20:24:00Z,28.4460,-96.3961,3.895,1111122 
TCOON,ioos:station:TCOON:057:1,2019-04-04T21:24:00Z,28.4460,-96.3961,3.898,1111122 
TCOON,ioos:station:TCOON:057:1,2019-04-04T22:24:00Z,28.4460,-96.3961,3.895,1111122 
TCOON,ioos:station:TCOON:057:1,2019-04-04T23:24:00Z,28.4460,-96.3961,3.894,1111122 
TCOON,ioos:station:TCOON:057:1,2019-04-05T00:24:00Z,28.4460,-96.3961,3.897,1111122 
TCOON,ioos:station:TCOON:057:1,2019-04-05T01:24:00Z,28.4460,-96.3961,3.878,1111122 
TCOON,ioos:station:TCOON:057:1,2019-04-05T02:24:00Z,28.4460,-96.3961,3.876,1111122 
TCOON,ioos:station:TCOON:057:1,2019-04-05T03:24:00Z,28.4460,-96.3961,3.858,1111122 
TCOON,ioos:station:TCOON:057:1,2019-04-05T04:24:00Z,28.4460,-96.3961,3.845,1111122 
TCOON,ioos:station:TCOON:057:1,2019-04-05T05:24:00Z,28.4460,-96.3961,3.847,1111122 
TCOON,ioos:station:TCOON:057:1,2019-04-05T06:24:00Z,28.4460,-96.3961,3.842,1111122 
TCOON,ioos:station:TCOON:057:1,2019-04-05T07:24:00Z,28.4460,-96.3961,3.856,1111122 
TCOON,ioos:station:TCOON:057:1,2019-04-05T08:24:00Z,28.4460,-96.3961,3.85,1111122 
TCOON,ioos:station:TCOON:057:1,2019-04-05T09:24:00Z,28.4460,-96.3961,3.864,1111122 
TCOON,ioos:station:TCOON:057:1,2019-04-05T10:24:00Z,28.4460,-96.3961,3.866,1111122 
TCOON,ioos:station:TCOON:057:1,2019-04-05T11:24:00Z,28.4460,-96.3961,3.887,1111122 
TCOON,ioos:station:TCOON:057:1,2019-04-05T12:24:00Z,28.4460,-96.3961,3.876,1111122 
TCOON,ioos:station:TCOON:057:1,2019-04-05T13:24:00Z,28.4460,-96.3961,3.874,1111122 
TCOON,ioos:station:TCOON:057:1,2019-04-05T14:30:00Z,28.4460,-96.3961,3.867,1111122 
TCOON,ioos:station:TCOON:057:1,2019-04-05T15:24:00Z,28.4460,-96.3961,3.847,1111122 
TCOON,ioos:station:TCOON:057:1,2019-04-05T16:24:00Z,28.4460,-96.3961,3.839,1111122 
TCOON,ioos:station:TCOON:057:1,2019-04-05T17:24:00Z,28.4460,-96.3961,3.828,1111122 
TCOON,ioos:station:TCOON:057:1,2019-04-05T18:24:00Z,28.4460,-96.3961,3.829,1111122 
TCOON,ioos:station:TCOON:057:1,2019-04-05T19:24:00Z,28.4460,-96.3961,3.827,1111122 
TCOON,ioos:station:TCOON:057:1,2019-04-05T20:24:00Z,28.4460,-96.3961,3.836,1111122 
TCOON,ioos:station:TCOON:057:1,2019-04-05T21:24:00Z,28.4460,-96.3961,3.844,1111122 
TCOON,ioos:station:TCOON:057:1,2019-04-05T22:24:00Z,28.4460,-96.3961,3.865,1111122 
TCOON,ioos:station:TCOON:057:1,2019-04-05T23:24:00Z,28.4460,-96.3961,3.879,1111122 
TCOON,ioos:station:TCOON:057:1,2019-04-06T00:24:00Z,28.4460,-96.3961,3.87,1111122 
TCOON,ioos:station:TCOON:057:1,2019-04-06T01:24:00Z,28.4460,-96.3961,3.852,1111122 
TCOON,ioos:station:TCOON:057:1,2019-04-06T02:24:00Z,28.4460,-96.3961,3.854,1111122 
TCOON,ioos:station:TCOON:057:1,2019-04-06T03:24:00Z,28.4460,-96.3961,3.853,1111122 
TCOON,ioos:station:TCOON:057:1,2019-04-06T04:24:00Z,28.4460,-96.3961,3.848,1111122 
TCOON,ioos:station:TCOON:057:1,2019-04-06T05:24:00Z,28.4460,-96.3961,3.837,1111122 
TCOON,ioos:station:TCOON:057:1,2019-04-06T06:24:00Z,28.4460,-96.3961,3.855,1111122 
TCOON,ioos:station:TCOON:057:1,2019-04-06T07:24:00Z,28.4460,-96.3961,3.867,1111122 
TCOON,ioos:station:TCOON:057:1,2019-04-06T08:24:00Z,28.4460,-96.3961,3.891,1111122 
TCOON,ioos:station:TCOON:057:1,2019-04-06T09:24:00Z,28.4460,-96.3961,3.904,1111122 
TCOON,ioos:station:TCOON:057:1,2019-04-06T10:24:00Z,28.4460,-96.3961,3.906,1111122 
TCOON,ioos:station:TCOON:057:1,2019-04-06T11:24:00Z,28.4460,-96.3961,3.94,1111122 
TCOON,ioos:station:TCOON:057:1,2019-04-06T12:24:00Z,28.4460,-96.3961,3.953,1111122 
TCOON,ioos:station:TCOON:057:1,2019-04-06T13:24:00Z,28.4460,-96.3961,3.969,1111122 
TCOON,ioos:station:TCOON:057:1,2019-04-06T14:24:00Z,28.4460,-96.3961,3.949,1111122 
TCOON,ioos:station:TCOON:057:1,2019-04-06T15:24:00Z,28.4460,-96.3961,3.951,1111122 
TCOON,ioos:station:TCOON:057:1,2019-04-06T16:24:00Z,28.4460,-96.3961,3.96,1111122 
TCOON,ioos:station:TCOON:057:1,2019-04-06T17:24:00Z,28.4460,-96.3961,3.904,1111122 
TCOON,ioos:station:TCOON:057:1,2019-04-06T18:24:00Z,28.4460,-96.3961,3.901,1111122 
TCOON,ioos:station:TCOON:057:1,2019-04-06T19:30:00Z,28.4460,-96.3961,3.898,1111122 
TCOON,ioos:station:TCOON:057:1,2019-04-06T20:24:00Z,28.4460,-96.3961,3.884,1111122 
TCOON,ioos:station:TCOON:057:1,2019-04-06T21:24:00Z,28.4460,-96.3961,3.904,1111122 
TCOON,ioos:station:TCOON:057:1,2019-04-06T22:24:00Z,28.4460,-96.3961,3.886,1111122 
TCOON,ioos:station:TCOON:057:1,2019-04-06T23:24:00Z,28.4460,-96.3961,3.861,1111122 
TCOON,ioos:station:TCOON:057:1,2019-04-07T00:24:00Z,28.4460,-96.3961,3.868,1111122 
TCOON,ioos:station:TCOON:057:1,2019-04-07T01:24:00Z,28.4460,-96.3961,3.838,1111122 
TCOON,ioos:station:TCOON:057:1,2019-04-07T02:24:00Z,28.4460,-96.3961,3.812,1111122 
TCOON,ioos:station:TCOON:057:1,2019-04-07T03:24:00Z,28.4460,-96.3961,3.782,1111122 
TCOON,ioos:station:TCOON:057:1,2019-04-07T04:24:00Z,28.4460,-96.3961,3.781,1111122 
TCOON,ioos:station:TCOON:057:1,2019-04-07T05:24:00Z,28.4460,-96.3961,3.764,1111122 
TCOON,ioos:station:TCOON:057:1,2019-04-07T06:24:00Z,28.4460,-96.3961,3.759,1111122 
TCOON,ioos:station:TCOON:057:1,2019-04-07T07:24:00Z,28.4460,-96.3961,3.777,1111122 
TCOON,ioos:station:TCOON:057:1,2019-04-07T08:24:00Z,28.4460,-96.3961,3.828,1111122 
TCOON,ioos:station:TCOON:057:1,2019-04-07T09:24:00Z,28.4460,-96.3961,3.862,1111122 
TCOON,ioos:station:TCOON:057:1,2019-04-07T10:24:00Z,28.4460,-96.3961,3.888,1111122 
TCOON,ioos:station:TCOON:057:1,2019-04-07T11:24:00Z,28.4460,-96.3961,3.922,1111122 
TCOON,ioos:station:TCOON:057:1,2019-04-07T12:24:00Z,28.4460,-96.3961,3.968,1111122 
TCOON,ioos:station:TCOON:057:1,2019-04-07T13:24:00Z,28.4460,-96.3961,3.972,1111122 
TCOON,ioos:station:TCOON:057:1,2019-04-07T14:24:00Z,28.4460,-96.3961,4.026,1111122 
TCOON,ioos:station:TCOON:057:1,2019-04-07T15:24:00Z,28.4460,-96.3961,4.009,1111122 
TCOON,ioos:station:TCOON:057:1,2019-04-07T16:24:00Z,28.4460,-96.3961,3.991,1111122 
TCOON,ioos:station:TCOON:057:1,2019-04-07T17:24:00Z,28.4460,-96.3961,4.011,1111122 
TCOON,ioos:station:TCOON:057:1,2019-04-07T18:24:00Z,28.4460,-96.3961,3.971,1111122 
TCOON,ioos:station:TCOON:057:1,2019-04-07T19:24:00Z,28.4460,-96.3961,4.006,1111122 
TCOON,ioos:station:TCOON:057:1,2019-04-07T20:24:00Z,28.4460,-96.3961,4.016,1111122 
TCOON,ioos:station:TCOON:057:1,2019-04-07T21:24:00Z,28.4460,-96.3961,3.964,1111122 
TCOON,ioos:station:TCOON:057:1,2019-04-07T22:24:00Z,28.4460,-96.3961,3.94,1111122 
TCOON,ioos:station:TCOON:057:1,2019-04-07T23:24:00Z,28.4460,-96.3961,3.916,1111122 
TCOON,ioos:station:TCOON:057:1,2019-04-08T00:24:00Z,28.4460,-96.3961,3.948,1111122 
TCOON,ioos:station:TCOON:057:1,2019-04-08T01:24:00Z,28.4460,-96.3961,3.905,1111122 
TCOON,ioos:station:TCOON:057:1,2019-04-08T02:24:00Z,28.4460,-96.3961,3.856,1111122 
TCOON,ioos:station:TCOON:057:1,2019-04-08T03:24:00Z,28.4460,-96.3961,3.826,1111122 
TCOON,ioos:station:TCOON:057:1,2019-04-08T04:24:00Z,28.4460,-96.3961,3.795,1111122 
TCOON,ioos:station:TCOON:057:1,2019-04-08T05:24:00Z,28.4460,-96.3961,3.799,1111122 
TCOON,ioos:station:TCOON:057:1,2019-04-08T06:24:00Z,28.4460,-96.3961,3.783,1111122 
TCOON,ioos:station:TCOON:057:1,2019-04-08T07:24:00Z,28.4460,-96.3961,3.759,1111122 
TCOON,ioos:station:TCOON:057:1,2019-04-08T08:24:00Z,28.4460,-96.3961,3.753,1111122 
TCOON,ioos:station:TCOON:057:1,2019-04-08T09:24:00Z,28.4460,-96.3961,3.766,1111122 
TCOON,ioos:station:TCOON:057:1,2019-04-08T10:24:00Z,28.4460,-96.3961,3.741,1111122 
TCOON,ioos:station:TCOON:057:1,2019-04-08T11:24:00Z,28.4460,-96.3961,3.763,1111122 
TCOON,ioos:station:TCOON:057:1,2019-04-08T12:24:00Z,28.4460,-96.3961,3.827,1111122 
TCOON,ioos:station:TCOON:057:1,2019-04-08T13:24:00Z,28.4460,-96.3961,3.856,1111122 
TCOON,ioos:station:TCOON:057:1,2019-04-08T14:24:00Z,28.4460,-96.3961,3.877,1111122 
TCOON,ioos:station:TCOON:057:1,2019-04-08T15:24:00Z,28.4460,-96.3961,3.853,1111122 
TCOON,ioos:station:TCOON:057:1,2019-04-08T16:24:00Z,28.4460,-96.3961,3.852,1111122 
TCOON,ioos:station:TCOON:057:1,2019-04-08T17:30:00Z,28.4460,-96.3961,3.807,1111122 
TCOON,ioos:station:TCOON:057:1,2019-04-08T18:24:00Z,28.4460,-96.3961,3.785,1111122 
TCOON,ioos:station:TCOON:057:1,2019-04-08T19:24:00Z,28.4460,-96.3961,3.789,1111122 
TCOON,ioos:station:TCOON:057:1,2019-04-08T20:24:00Z,28.4460,-96.3961,3.755,1111122 
TCOON,ioos:station:TCOON:057:1,2019-04-08T21:24:00Z,28.4460,-96.3961,3.751,1111122 
TCOON,ioos:station:TCOON:057:1,2019-04-08T22:24:00Z,28.4460,-96.3961,3.734,1111122 
TCOON,ioos:station:TCOON:057:1,2019-04-08T23:24:00Z,28.4460,-96.3961,3.731,1111122 
TCOON,ioos:station:TCOON:057:1,2019-04-09T00:24:00Z,28.4460,-96.3961,3.69,1111122 
TCOON,ioos:station:TCOON:057:1,2019-04-09T01:24:00Z,28.4460,-96.3961,3.665,1111122 
TCOON,ioos:station:TCOON:057:1,2019-04-09T02:24:00Z,28.4460,-96.3961,3.643,1111122 
TCOON,ioos:station:TCOON:057:1,2019-04-09T03:24:00Z,28.4460,-96.3961,3.593,1111122 
TCOON,ioos:station:TCOON:057:1,2019-04-09T04:24:00Z,28.4460,-96.3961,3.558,1111122 
TCOON,ioos:station:TCOON:057:1,2019-04-09T05:24:00Z,28.4460,-96.3961,3.537,1111122 
TCOON,ioos:station:TCOON:057:1,2019-04-09T06:24:00Z,28.4460,-96.3961,3.508,1111122 
TCOON,ioos:station:TCOON:057:1,2019-04-09T07:24:00Z,28.4460,-96.3961,3.48,1111122 
TCOON,ioos:station:TCOON:057:1,2019-04-09T08:24:00Z,28.4460,-96.3961,3.467,1111122 
TCOON,ioos:station:TCOON:057:1,2019-04-09T09:24:00Z,28.4460,-96.3961,3.492,1111122 
TCOON,ioos:station:TCOON:057:1,2019-04-09T10:24:00Z,28.4460,-96.3961,3.521,1111122 
TCOON,ioos:station:TCOON:057:1,2019-04-09T11:24:00Z,28.4460,-96.3961,3.53,1111122 
TCOON,ioos:station:TCOON:057:1,2019-04-09T12:24:00Z,28.4460,-96.3961,3.567,1111122 
TCOON,ioos:station:TCOON:057:1,2019-04-09T13:24:00Z,28.4460,-96.3961,3.609,1111122 
TCOON,ioos:station:TCOON:057:1,2019-04-09T14:24:00Z,28.4460,-96.3961,3.641,1111122 
TCOON,ioos:station:TCOON:057:1,2019-04-09T15:24:00Z,28.4460,-96.3961,3.655,1111122 
TCOON,ioos:station:TCOON:057:1,2019-04-09T16:24:00Z,28.4460,-96.3961,3.663,1111122 
TCOON,ioos:station:TCOON:057:1,2019-04-09T17:24:00Z,28.4460,-96.3961,3.662,1111122 
TCOON,ioos:station:TCOON:057:1,2019-04-09T18:24:00Z,28.4460,-96.3961,3.688,1111122 
TCOON,ioos:station:TCOON:057:1,2019-04-09T19:24:00Z,28.4460,-96.3961,3.702,1111122 
TCOON,ioos:station:TCOON:057:1,2019-04-09T20:24:00Z,28.4460,-96.3961,3.678,1111122 
TCOON,ioos:station:TCOON:057:1,2019-04-09T21:24:00Z,28.4460,-96.3961,3.689,1111122 
TCOON,ioos:station:TCOON:057:1,2019-04-09T22:24:00Z,28.4460,-96.3961,3.677,1111122 
TCOON,ioos:station:TCOON:057:1,2019-04-09T23:24:00Z,28.4460,-96.3961,3.689,1111122 
TCOON,ioos:station:TCOON:057:1,2019-04-10T00:24:00Z,28.4460,-96.3961,3.661,1111122 
TCOON,ioos:station:TCOON:057:1,2019-04-10T01:24:00Z,28.4460,-96.3961,3.646,1111122 
TCOON,ioos:station:TCOON:057:1,2019-04-10T02:24:00Z,28.4460,-96.3961,3.612,1111122 
TCOON,ioos:station:TCOON:057:1,2019-04-10T03:24:00Z,28.4460,-96.3961,3.573,1111122 
TCOON,ioos:station:TCOON:057:1,2019-04-10T04:24:00Z,28.4460,-96.3961,3.54,1111122 
TCOON,ioos:station:TCOON:057:1,2019-04-10T05:24:00Z,28.4460,-96.3961,3.526,1111122 
TCOON,ioos:station:TCOON:057:1,2019-04-10T06:24:00Z,28.4460,-96.3961,3.507,1111122 
TCOON,ioos:station:TCOON:057:1,2019-04-10T07:24:00Z,28.4460,-96.3961,3.5,1111122 
TCOON,ioos:station:TCOON:057:1,2019-04-10T08:24:00Z,28.4460,-96.3961,3.493,1111122 
TCOON,ioos:station:TCOON:057:1,2019-04-10T09:24:00Z,28.4460,-96.3961,3.495,1111122 
TCOON,ioos:station:TCOON:057:1,2019-04-10T10:24:00Z,28.4460,-96.3961,3.518,1111122 
TCOON,ioos:station:TCOON:057:1,2019-04-10T11:24:00Z,28.4460,-96.3961,3.549,1111122 
TCOON,ioos:station:TCOON:057:1,2019-04-10T12:24:00Z,28.4460,-96.3961,3.577,1111122 
TCOON,ioos:station:TCOON:057:1,2019-04-10T13:24:00Z,28.4460,-96.3961,3.618,1111122 
TCOON,ioos:station:TCOON:057:1,2019-04-10T14:24:00Z,28.4460,-96.3961,3.656,1111122 
TCOON,ioos:station:TCOON:057:1,2019-04-10T15:24:00Z,28.4460,-96.3961,3.675,1111122 
TCOON,ioos:station:TCOON:057:1,2019-04-10T16:24:00Z,28.4460,-96.3961,3.713,1111122 
TCOON,ioos:station:TCOON:057:1,2019-04-10T17:24:00Z,28.4460,-96.3961,3.744,1111122 
TCOON,ioos:station:TCOON:057:1,2019-04-10T18:24:00Z,28.4460,-96.3961,3.761,1111122 
TCOON,ioos:station:TCOON:057:1,2019-04-10T19:24:00Z,28.4460,-96.3961,3.78,1111122 
TCOON,ioos:station:TCOON:057:1,2019-04-10T20:24:00Z,28.4460,-96.3961,3.788,1111122 
TCOON,ioos:station:TCOON:057:1,2019-04-10T21:24:00Z,28.4460,-96.3961,3.782,1111122 
TCOON,ioos:station:TCOON:057:1,2019-04-10T22:24:00Z,28.4460,-96.3961,3.801,1111122 
TCOON,ioos:station:TCOON:057:1,2019-04-10T23:24:00Z,28.4460,-96.3961,3.794,1111122 
TCOON,ioos:station:TCOON:057:1,2019-04-11T00:24:00Z,28.4460,-96.3961,3.781,1111122 
TCOON,ioos:station:TCOON:057:1,2019-04-11T01:24:00Z,28.4460,-96.3961,3.755,1111122 
TCOON,ioos:station:TCOON:057:1,2019-04-11T02:24:00Z,28.4460,-96.3961,3.739,1111122 
TCOON,ioos:station:TCOON:057:1,2019-04-11T03:24:00Z,28.4460,-96.3961,3.716,1111122 
TCOON,ioos:station:TCOON:057:1,2019-04-11T04:24:00Z,28.4460,-96.3961,3.699,1111122 
TCOON,ioos:station:TCOON:057:1,2019-04-11T05:24:00Z,28.4460,-96.3961,3.677,1111122 
TCOON,ioos:station:TCOON:057:1,2019-04-11T06:24:00Z,28.4460,-96.3961,3.666,1111122 
TCOON,ioos:station:TCOON:057:1,2019-04-11T07:24:00Z,28.4460,-96.3961,3.652,1111122 
TCOON,ioos:station:TCOON:057:1,2019-04-11T08:24:00Z,28.4460,-96.3961,3.634,1111122 
TCOON,ioos:station:TCOON:057:1,2019-04-11T09:24:00Z,28.4460,-96.3961,3.621,1111122 
TCOON,ioos:station:TCOON:057:1,2019-04-11T10:24:00Z,28.4460,-96.3961,3.652,1111122 
TCOON,ioos:station:TCOON:057:1,2019-04-11T11:24:00Z,28.4460,-96.3961,3.692,1111122 
TCOON,ioos:station:TCOON:057:1,2019-04-11T12:24:00Z,28.4460,-96.3961,3.786,1111122 
TCOON,ioos:station:TCOON:057:1,2019-04-11T13:24:00Z,28.4460,-96.3961,3.828,1111122 
TCOON,ioos:station:TCOON:057:1,2019-04-11T14:24:00Z,28.4460,-96.3961,3.863,1111122 
TCOON,ioos:station:TCOON:057:1,2019-04-11T15:24:00Z,28.4460,-96.3961,3.884,1111122 
TCOON,ioos:station:TCOON:057:1,2019-04-11T16:24:00Z,28.4460,-96.3961,3.914,1111122 
TCOON,ioos:station:TCOON:057:1,2019-04-11T17:30:00Z,28.4460,-96.3961,3.948,1111122 
TCOON,ioos:station:TCOON:057:1,2019-04-11T18:30:00Z,28.4460,-96.3961,3.963,1111122 
TCOON,ioos:station:TCOON:057:1,2019-04-11T19:24:00Z,28.4460,-96.3961,3.974,1111122 
TCOON,ioos:station:TCOON:057:1,2019-04-11T20:24:00Z,28.4460,-96.3961,3.982,1111122 
TCOON,ioos:station:TCOON:057:1,2019-04-11T21:24:00Z,28.4460,-96.3961,3.972,1111122 
TCOON,ioos:station:TCOON:057:1,2019-04-11T22:24:00Z,28.4460,-96.3961,3.971,1111122 
TCOON,ioos:station:TCOON:057:1,2019-04-11T23:24:00Z,28.4460,-96.3961,3.958,1111122 
TCOON,ioos:station:TCOON:057:1,2019-04-12T00:24:00Z,28.4460,-96.3961,3.961,1111122 
TCOON,ioos:station:TCOON:057:1,2019-04-12T01:24:00Z,28.4460,-96.3961,3.95,1111122 
TCOON,ioos:station:TCOON:057:1,2019-04-12T02:24:00Z,28.4460,-96.3961,3.912,1111122 
TCOON,ioos:station:TCOON:057:1,2019-04-12T03:24:00Z,28.4460,-96.3961,3.881,1111122 
TCOON,ioos:station:TCOON:057:1,2019-04-12T04:24:00Z,28.4460,-96.3961,3.843,1111122 
TCOON,ioos:station:TCOON:057:1,2019-04-12T05:24:00Z,28.4460,-96.3961,3.816,1111122 
TCOON,ioos:station:TCOON:057:1,2019-04-12T06:24:00Z,28.4460,-96.3961,3.788,1111122 
TCOON,ioos:station:TCOON:057:1,2019-04-12T07:24:00Z,28.4460,-96.3961,3.764,1111122 
TCOON,ioos:station:TCOON:057:1,2019-04-12T08:24:00Z,28.4460,-96.3961,3.741,1111122 
TCOON,ioos:station:TCOON:057:1,2019-04-12T09:24:00Z,28.4460,-96.3961,3.712,1111122 
TCOON,ioos:station:TCOON:057:1,2019-04-12T10:24:00Z,28.4460,-96.3961,3.701,1111122 
TCOON,ioos:station:TCOON:057:1,2019-04-12T11:24:00Z,28.4460,-96.3961,3.71,1111122 
TCOON,ioos:station:TCOON:057:1,2019-04-12T12:24:00Z,28.4460,-96.3961,3.733,1111122 
TCOON,ioos:station:TCOON:057:1,2019-04-12T13:24:00Z,28.4460,-96.3961,3.789,1111122 
TCOON,ioos:station:TCOON:057:1,2019-04-12T14:24:00Z,28.4460,-96.3961,3.795,1111122 
TCOON,ioos:station:TCOON:057:1,2019-04-12T15:24:00Z,28.4460,-96.3961,3.815,1111122 
TCOON,ioos:station:TCOON:057:1,2019-04-12T16:24:00Z,28.4460,-96.3961,3.838,1111122 
TCOON,ioos:station:TCOON:057:1,2019-04-12T17:24:00Z,28.4460,-96.3961,3.874,1111122 
TCOON,ioos:station:TCOON:057:1,2019-04-12T18:24:00Z,28.4460,-96.3961,3.887,1111122 
TCOON,ioos:station:TCOON:057:1,2019-04-12T19:24:00Z,28.4460,-96.3961,3.931,1111122 
TCOON,ioos:station:TCOON:057:1,2019-04-12T20:24:00Z,28.4460,-96.3961,3.952,1111122 